FW1093 Weather Reports


time (UTC)temp
C
wind
direction
speed
KPH
gust
KPH
rain 1hr
cm
rain 24hr
cm
rain mn
cm
humidity
%
barometer
mb
20260508085312 6 45 0.0 0.0 0.00 0.10 0.00 76 1011.2
20260508084349 6 45 0.0 0.0 0.00 0.10 0.00 76 1011.3
20260508083335 6 45 0.0 0.0 0.00 0.10 0.00 77 1011.4
20260508082325 6 45 0.0 0.0 0.00 0.10 0.00 75 1011.3
20260508081334 6 45 0.0 0.0 0.00 0.10 0.00 80 1011.3
20260508080324 6 46 0.0 0.0 0.00 0.10 0.00 78 1011.3
20260508075340 6 44 0.0 0.0 0.00 0.25 0.00 72 1011.2
20260508074327 6 44 0.0 0.0 0.00 0.25 0.00 75 1011.0
20260508073336 6 44 0.0 0.0 0.00 0.25 0.00 79 1011.0
20260508072326 6 44 0.0 0.0 0.00 0.25 0.00 78 1011.1
20260508071315 6 44 0.0 0.0 0.00 0.25 0.00 79 1011.1
20260508070329 6 44 0.0 3.2 0.00 0.25 0.00 76 1011.1
20260508065317 6 221 0.0 4.8 0.00 0.43 0.00 81 1011.2
20260508064325 5 267 0.0 0.0 0.00 0.43 0.00 83 1011.2
20260508063314 5 267 0.0 0.0 0.00 0.43 0.00 84 1010.8
20260508062321 5 267 0.0 0.0 0.00 0.43 0.00 84 1010.4
20260508061337 6 267 0.0 0.0 0.00 0.43 0.00 83 1010.2
20260508060346 5 267 0.0 0.0 0.00 0.43 0.00 82 1010.2
20260508055314 5 267 0.0 0.0 0.00 0.43 0.00 81 1010.2
20260508054322 5 266 0.0 0.0 0.00 0.43 0.00 84 1010.0
20260508053331 5 266 0.0 0.0 0.00 0.43 0.00 84 1009.8
20260508052321 5 266 0.0 0.0 0.00 0.43 0.00 84 1009.8
20260508051335 5 266 0.0 0.0 0.00 0.43 0.00 84 1009.9
20260508050326 5 266 0.0 0.0 0.00 0.43 0.00 83 1009.8
20260508045334 5 266 0.0 0.0 0.00 0.43 0.00 82 1009.7
20260508044323 5 266 0.0 0.0 0.00 0.43 0.00 81 1009.8
20260508043316 5 266 0.0 0.0 0.00 0.43 0.00 79 1009.8
20260508042324 5 266 0.0 0.0 0.00 0.43 0.00 79 1009.8
20260508041314 5 266 0.0 0.0 0.00 0.43 0.00 80 1009.9
20260508040322 5 266 0.0 0.0 0.00 0.43 0.00 79 1009.9
20260508035359 5 266 0.0 0.0 0.00 0.43 0.43 79 1010.1
20260508034328 5 266 0.0 0.0 0.00 0.43 0.43 78 1010.1
20260508033315 5 266 0.0 0.0 0.00 0.43 0.43 76 1010.1
20260508032323 6 266 0.0 0.0 0.00 0.43 0.43 74 1010.2
20260508031338 6 266 0.0 0.0 0.00 0.43 0.43 78 1010.3
20260508030347 6 266 0.0 0.0 0.00 0.43 0.43 78 1010.2
20260508025315 6 266 0.0 0.0 0.00 0.43 0.43 78 1010.2
20260508024351 6 266 0.0 0.0 0.00 0.43 0.43 78 1010.1
20260508023317 6 266 0.0 0.0 0.00 0.43 0.43 78 1010.1
20260508022352 6 266 0.0 0.0 0.00 0.43 0.43 77 1010.0
20260508021320 6 266 0.0 0.0 0.00 0.43 0.43 76 1010.1
20260508020328 6 266 0.0 0.0 0.00 0.43 0.43 77 1010.1
20260508015338 6 266 0.0 0.0 0.00 0.43 0.43 76 1010.0
20260508014346 7 266 0.0 0.0 0.00 0.43 0.43 75 1010.0
20260508013313 7 266 0.0 0.0 0.00 0.43 0.43 73 1009.8
20260508012327 7 266 0.0 0.0 0.00 0.43 0.43 73 1009.6
20260508011316 8 266 0.0 0.0 0.00 0.43 0.43 71 1009.6
20260508010325 8 266 0.0 0.0 0.00 0.43 0.43 69 1009.5
20260508005315 9 266 0.0 0.0 0.00 0.43 0.43 69 1009.1
20260508004324 9 266 0.0 0.0 0.00 0.43 0.43 66 1008.9
20260508003313 10 266 0.0 0.0 0.00 0.43 0.43 64 1008.8
20260508002346 10 266 0.0 0.0 0.00 0.43 0.43 63 1008.6
20260508001316 11 266 0.0 0.0 0.00 0.43 0.43 60 1008.5
20260508000331 11 266 0.0 0.0 0.00 0.43 0.43 58 1008.6
20260507234331 13 266 0.0 0.0 0.00 0.43 0.43 53 1008.3
20260507233336 14 266 0.0 3.2 0.00 0.43 0.43 52 1008.2
20260507232323 14 236 0.0 1.6 0.00 0.43 0.43 46 1008.2
20260507231313 14 278 0.0 1.6 0.00 0.43 0.43 43 1008.1
20260507230348 14 307 0.0 4.8 0.00 0.43 0.43 43 1008.1
20260507225337 15 360 1.6 6.4 0.00 0.43 0.43 40 1008.1
20260507224326 15 330 1.6 8.0 0.00 0.43 0.43 38 1008.1
20260507223317 16 282 1.6 3.2 0.00 0.43 0.43 39 1008.0
20260507222333 16 292 0.0 3.2 0.00 0.43 0.43 37 1008.0
20260507221342 16 347 0.0 8.0 0.00 0.43 0.43 37 1007.9
20260507220328 17 333 0.0 4.8 0.00 0.43 0.43 36 1007.9
20260507215337 16 49 3.2 14.5 0.00 0.43 0.43 35 1008.0
20260507214329 16 316 3.2 6.4 0.00 0.43 0.43 34 1007.8
20260507213319 15 285 1.6 6.4 0.00 0.43 0.43 40 1007.7
20260507212334 15 359 0.0 4.8 0.00 0.43 0.43 41 1007.8
20260507211322 16 152 0.0 9.7 0.00 0.43 0.43 38 1007.7
20260507210331 16 3 3.2 8.0 0.00 0.43 0.43 38 1007.7
20260507205319 16 257 0.0 6.4 0.00 0.46 0.43 38 1007.5
20260507204337 17 304 1.6 6.4 0.00 0.46 0.43 37 1007.4
20260507203325 16 300 1.6 8.0 0.00 0.46 0.43 36 1007.4
20260507202359 16 328 1.6 8.0 0.00 0.46 0.43 39 1007.4
20260507201327 16 288 1.6 6.4 0.00 0.46 0.43 38 1007.4
20260507200336 16 300 1.6 8.0 0.00 0.46 0.43 37 1007.5
20260507195323 15 350 3.2 9.7 0.00 0.46 0.43 38 1007.8
20260507194317 16 274 3.2 8.0 0.00 0.46 0.43 35 1007.6
20260507193346 16 272 3.2 9.7 0.00 0.46 0.43 39 1007.7
20260507192318 16 8 1.6 4.8 0.00 0.46 0.43 40 1007.8
20260507191333 16 275 0.0 8.0 0.00 0.46 0.43 38 1007.9
20260507190323 16 294 1.6 9.7 0.00 0.46 0.43 38 1008.1
20260507185330 16 245 1.6 8.0 0.00 0.51 0.43 38 1008.2
20260507184317 16 344 3.2 6.4 0.00 0.51 0.43 36 1008.4
20260507183335 16 324 3.2 9.7 0.00 0.51 0.43 38 1008.4
20260507182319 16 281 1.6 9.7 0.00 0.51 0.43 42 1008.5
20260507181325 16 360 1.6 9.7 0.00 0.51 0.43 38 1008.6
20260507180340 16 275 3.2 6.4 0.00 0.51 0.43 40 1008.8
20260507175327 16 293 3.2 8.0 0.00 0.58 0.43 38 1008.9
20260507174314 15 329 4.8 12.9 0.00 0.58 0.43 36 1009.1
20260507173330 15 286 1.6 9.7 0.00 0.58 0.43 41 1009.1
20260507172338 15 269 1.6 11.3 0.00 0.58 0.43 39 1009.4
20260507170335 15 305 3.2 12.9 0.00 0.58 0.43 42 1009.6
20260507165326 15 275 3.2 9.7 0.00 0.58 0.43 39 1009.8
20260507164336 14 14 3.2 8.0 0.00 0.58 0.43 39 1009.8
20260507163326 14 11 3.2 8.0 0.00 0.58 0.43 44 1009.8
20260507162314 13 251 1.6 9.7 0.00 0.58 0.43 44 1009.8
20260507161321 13 6 1.6 12.9 0.00 0.58 0.43 46 1010.2
20260507160338 13 269 3.2 11.3 0.00 0.58 0.43 40 1010.2
20260507155327 13 35 3.2 11.3 0.00 0.58 0.43 39 1010.3
20260507154315 13 359 1.6 9.7 0.00 0.58 0.43 44 1010.5
20260507153330 12 35 4.8 11.3 0.00 0.58 0.43 43 1010.6
20260507152321 12 25 4.8 11.3 0.00 0.58 0.43 44 1010.9
20260507151337 12 282 3.2 9.7 0.00 0.58 0.43 48 1010.7
20260507150317 12 243 3.2 9.7 0.00 0.58 0.43 47 1010.6
20260507145349 12 348 3.2 9.7 0.00 0.58 0.43 49 1010.6
20260507144317 11 14 1.6 9.7 0.00 0.58 0.43 50 1010.7
20260507143333 11 275 3.2 8.0 0.00 0.58 0.43 52 1010.7
20260507142321 11 288 4.8 12.9 0.00 0.58 0.43 49 1010.8
20260507141338 11 352 1.6 8.0 0.00 0.58 0.43 52 1010.8
20260507140328 10 12 0.0 8.0 0.00 0.58 0.43 63 1010.8
20260507135318 10 284 0.0 6.4 0.00 0.58 0.43 63 1010.8
20260507134329 10 279 1.6 6.4 0.00 0.58 0.43 65 1010.7
20260507133324 9 346 1.6 11.3 0.00 0.58 0.43 63 1010.6
20260507132332 8 291 0.0 4.8 0.00 0.58 0.43 74 1010.8
20260507131320 8 262 0.0 1.6 0.00 0.58 0.43 74 1010.7
20260507130330 8 275 1.6 8.0 0.00 0.58 0.43 73 1010.7
20260507125319 8 236 3.2 19.3 0.00 0.58 0.43 77 1010.8
20260507124328 8 131 3.2 11.3 0.00 0.58 0.43 79 1010.8
20260507123338 8 321 0.0 9.7 0.00 0.58 0.43 84 1010.8
20260507122326 8 302 1.6 6.4 0.00 0.58 0.43 89 1010.8
20260507121317 8 4 0.0 3.2 0.00 0.58 0.43 91 1010.8
20260507120332 8 356 0.0 4.8 0.00 0.58 0.43 93 1010.4
20260507115322 8 306 0.0 1.6 0.00 0.58 0.43 93 1010.5
20260507114312 8 280 0.0 0.0 0.00 0.58 0.43 94 1010.5
20260507113319 8 277 0.0 0.0 0.00 0.58 0.43 95 1010.5
20260507112325 8 277 0.0 0.0 0.00 0.58 0.43 95 1010.4
20260507111334 8 277 0.0 1.6 0.00 0.58 0.43 95 1010.2
20260507110321 8 271 0.0 1.6 0.00 0.58 0.43 95 1010.1
20260507105328 8 271 0.0 1.6 0.00 0.58 0.43 95 1010.0
20260507104317 8 262 0.0 1.6 0.00 0.58 0.43 95 1009.7
20260507103327 8 262 0.0 0.0 0.00 0.58 0.43 95 1009.7
20260507102315 8 262 0.0 0.0 0.00 0.58 0.43 95 1009.8
20260507101327 8 262 0.0 0.0 0.00 0.58 0.43 95 1009.6
20260507100335 8 282 0.0 0.0 0.03 0.58 0.43 95 1009.4
20260507095345 8 282 0.0 0.0 0.03 0.58 0.43 95 1009.2
20260507094315 8 281 0.0 0.0 0.03 0.58 0.43 95 1009.3
20260507093325 8 281 0.0 0.0 0.05 0.58 0.43 95 1009.2
20260507092334 8 281 0.0 0.0 0.05 0.58 0.43 95 1008.9
20260507091322 8 281 0.0 0.0 0.08 0.58 0.43 95 1008.6
20260507090330 8 281 0.0 0.0 0.08 0.56 0.41 95 1008.9